(308243) = 2005 GC23 = 2009 FV30

Discovered at Anderson Mesa on 2005-04-01 by LONEOS.

Orbit

Orbit type: Main Belt

Note: WebGL enabled browser required.

epoch2023-09-13.0
epoch JD2460200.5
perihelion date2021-03-03.78560
perihelion JD2459277.28560
argument of perihelion (°)343.92054
ascending node (°)175.45290
inclination (°)16.04800
eccentricity0.0918682
perihelion distance (AU)2.3143556
Tisserand w.r.t. Jupiter3.4
ΔV w.r.t. Earth (km/sec)10.8
semimajor axis (AU)2.5484798
mean anomaly (°)223.65810
mean daily motion (°/day)0.24226020
aphelion distance (AU)2.783
period (years)4.07
P-vector [x]-0.93675202
P-vector [y]0.34379124
P-vector [z]0.06559902
Q-vector [x]-0.34930694
Q-vector [y]-0.93008175
Q-vector [z]-0.11372157
absolute magnitude16.63
phase slope0.15
uncertainty0
referenceMPEC 2023-Y111
observations used461
oppositions12
arc length (days)6848
first opposition used2005
last opposition used2023
residual rms (arc-secs)0.69
perturbers coarse indicatorM-v
perturbers precise indicator003Ek
first observation date used2005-03-31.0
last observation date used2023-12-30.0
computer nameMPCLINUX
JD of orbit computation2456847.708400
perihelion JD uncertainty (days)1.4805E-04
argument of perihelion uncertainty (°)4.1866E-05
ascending node uncertainty (°)1.9409E-05
inclination uncertainty (°)8.6048E-06
eccentricity uncertainty 8.4519E-08
perihelion distance uncertainty (AU)2.1733E-07
Minimum Orbit Intersection Distances (in AU)
for orbit epoch: 2460200.5, reference: E2023-YB1
Mercury1.93243
Venus1.60185
Earth1.32329
Mars0.66511
Jupiter2.19193
Saturn6.60384
Uranus16.1327
Neptune27.1163

Observations

478 total observations over interval: 2005 03 31.29063 – 2023 12 30.240229
These data are available for download (format description).

Date (UT) J2000 RA J2000 Dec Magn Location Ref
2005 03 31.29063 13 11 22.19 +01 57 25.4 19.7 R 683 – Goodricke-Pigott Observatory, Tucson MPS 137466
2005 03 31.30402 13 11 21.46 +01 57 38.5 20.3 R 683 – Goodricke-Pigott Observatory, Tucson MPS 137466
2005 03 31.31739 13 11 20.84 +01 57 46.5 20.4 R 683 – Goodricke-Pigott Observatory, Tucson MPS 137466
2005 04 01.25655 13 10 40.82 +02 10 18.6 19.2 R 699 – Lowell Observatory-LONEOS MPS 130885
2005 04 01.28090 13 10 39.79 +02 10 38.8   699 – Lowell Observatory-LONEOS MPS 130885
2005 04 01.30524 13 10 38.58 +02 10 57.1   699 – Lowell Observatory-LONEOS MPS 130885
2005 04 01.32954 13 10 37.54 +02 11 17.4   699 – Lowell Observatory-LONEOS MPS 130885
2005 04 05.22891 13 07 47.58 +03 02 28.4 19.3 R 699 – Lowell Observatory-LONEOS MPS 130885
2005 04 05.24513 13 07 46.83 +03 02 40.5   699 – Lowell Observatory-LONEOS MPS 130885
2005 04 05.26141 13 07 46.18 +03 02 53.7   699 – Lowell Observatory-LONEOS MPS 130885
2005 04 05.27764 13 07 45.42 +03 03 05.6   699 – Lowell Observatory-LONEOS MPS 130885
2005 04 08.38626 13 05 28.04 +03 42 32.9 19.2   704 – Lincoln Laboratory ETS, New Mexico MPS 137466
2005 04 08.39587 13 05 27.64 +03 42 40.5 19.3   704 – Lincoln Laboratory ETS, New Mexico MPS 137466
2005 04 08.40544 13 05 27.08 +03 42 48.5 19.5   704 – Lincoln Laboratory ETS, New Mexico MPS 137466
2005 04 08.41502 13 05 26.73 +03 42 54.5 19.5   704 – Lincoln Laboratory ETS, New Mexico MPS 137466
2005 04 08.42459 13 05 26.22 +03 43 02.4 19.4   704 – Lincoln Laboratory ETS, New Mexico MPS 137466
2007 10 10.44048 03 47 25.26 +02 22 44.0 20.3 V 703 – Catalina Sky Survey MPS 282549
2007 10 10.45184 03 47 25.08 +02 22 37.7 20.1 V 703 – Catalina Sky Survey MPS 282549
2007 10 10.46326 03 47 24.79 +02 22 30.6 20.3 V 703 – Catalina Sky Survey MPS 282549
2007 10 10.47464 03 47 24.68 +02 22 23.2 21.3 V 703 – Catalina Sky Survey MPS 282549
2009 01 01.51514 12 21 04.82 -06 57 41.7 21.0 V 691 – Steward Observatory, Kitt Peak-Spacewatch MPS 282549
2009 01 01.52823 12 21 05.67 -06 57 43.6 21.4 V 691 – Steward Observatory, Kitt Peak-Spacewatch MPS 282549
2009 01 01.54131 12 21 06.49 -06 57 45.5 21.4 V 691 – Steward Observatory, Kitt Peak-Spacewatch MPS 282549
2009 03 02.40553 12 44 56.97 -02 55 36.5 20.0 V 691 – Steward Observatory, Kitt Peak-Spacewatch MPS 282549
2009 03 02.42317 12 44 56.52 -02 55 24.4 19.9 V 691 – Steward Observatory, Kitt Peak-Spacewatch MPS 282549
2009 03 02.44082 12 44 56.09 -02 55 11.9 20.0 V 691 – Steward Observatory, Kitt Peak-Spacewatch MPS 282549
2009 03 18.05454 12 36 34.71 +00 25 39.2 19.6 V J75 – OAM Observatory, La Sagra MPS 282769
2009 03 18.06786 12 36 34.11 +00 25 50.1 19.6 V J75 – OAM Observatory, La Sagra MPS 282769
2009 03 18.08124 12 36 33.60 +00 26 00.5 19.4 V J75 – OAM Observatory, La Sagra MPS 282769
2009 03 23.10228 12 33 06.05 +01 35 23.3 19.0 V J75 – OAM Observatory, La Sagra MPS 282769
2009 03 23.11531 12 33 05.46 +01 35 34.2 18.9 V J75 – OAM Observatory, La Sagra MPS 282769
2009 03 23.12832 12 33 04.93 +01 35 44.6 19.0 V J75 – OAM Observatory, La Sagra MPS 282769
2009 03 24.20743 12 32 19.27 +01 50 40.9 19.5 V 691 – Steward Observatory, Kitt Peak-Spacewatch MPS 282549
2009 03 24.22507 12 32 18.47 +01 50 55.6 19.4 V 691 – Steward Observatory, Kitt Peak-Spacewatch MPS 282549
2009 03 24.24273 12 32 17.70 +01 51 09.6 19.6 V 691 – Steward Observatory, Kitt Peak-Spacewatch MPS 282549
2009 03 24.97519 12 31 46.15 +02 01 14.0 19.5 V J75 – OAM Observatory, La Sagra MPS 282769
2009 03 24.98848 12 31 45.46 +02 01 26.6 19.1 V J75 – OAM Observatory, La Sagra MPS 282769
2009 03 25.00113 12 31 44.94 +02 01 36.4 19.0 V J75 – OAM Observatory, La Sagra MPS 282769
2009 03 29.65799 12 28 23.20 +03 05 01.6 19.1 R D29 – Purple Mountain Observatory, XuYi Station MPS 282549
2009 03 29.68066 12 28 22.16 +03 05 19.8 19.0 R D29 – Purple Mountain Observatory, XuYi Station MPS 282549
2009 03 29.69410 12 28 21.54 +03 05 30.6 19.0 R D29 – Purple Mountain Observatory, XuYi Station MPS 282549
2009 03 29.70761 12 28 20.91 +03 05 41.9 19.1 R D29 – Purple Mountain Observatory, XuYi Station MPS 282549
2009 04 03.24046 12 25 07.21 +04 05 11.3 19.4 V 703 – Catalina Sky Survey MPS 283575
2009 04 03.24771 12 25 06.81 +04 05 16.6 19.3 V 703 – Catalina Sky Survey MPS 283575
2009 04 03.25502 12 25 06.56 +04 05 22.2 19.1 V 703 – Catalina Sky Survey MPS 283575
2009 04 03.26228 12 25 06.20 +04 05 28.6 19.5 V 703 – Catalina Sky Survey MPS 283575
2009 04 20.25203 12 15 02.57 +07 11 49.6 19.6   704 – Lincoln Laboratory ETS, New Mexico MPS 284343
2009 04 20.26346 12 15 02.33 +07 11 54.6 20.4   704 – Lincoln Laboratory ETS, New Mexico MPS 284343
2009 04 20.27433 12 15 01.97 +07 12 01.0 19.5   704 – Lincoln Laboratory ETS, New Mexico MPS 284343
2009 04 20.28632 12 15 01.67 +07 12 06.1 20.3   704 – Lincoln Laboratory ETS, New Mexico MPS 284343
2009 04 20.29733 12 15 01.33 +07 12 11.6 20.2   704 – Lincoln Laboratory ETS, New Mexico MPS 284343
2010 07 10.98556 20 41 11.63 +01 48 03.0 20.7 C 114 – Engelhardt Observatory, Zelenchukskaya Station MPS 338982
2010 07 10.98949 20 41 11.41 +01 48 02.0 20.6 C 114 – Engelhardt Observatory, Zelenchukskaya Station MPS 338982
2010 07 10.99339 20 41 11.33 +01 48 00.8 20.5 C 114 – Engelhardt Observatory, Zelenchukskaya Station MPS 338982
2010 07 10.99729 20 41 11.10 +01 48 00.9 20.4 C 114 – Engelhardt Observatory, Zelenchukskaya Station MPS 338982
2010 07 11.00120 20 41 10.95 +01 47 59.8 20.6 C 114 – Engelhardt Observatory, Zelenchukskaya Station MPS 338982
2010 07 14.98866 20 38 14.63 +01 34 33.2 20.4 C 114 – Engelhardt Observatory, Zelenchukskaya Station MPS 338982
2010 07 14.99260 20 38 14.52 +01 34 32.7 20.7 C 114 – Engelhardt Observatory, Zelenchukskaya Station MPS 338982
2010 07 14.99654 20 38 14.23 +01 34 30.9 20.5 C 114 – Engelhardt Observatory, Zelenchukskaya Station MPS 338982
2010 07 15.00046 20 38 14.13 +01 34 30.5 20.5 C 114 – Engelhardt Observatory, Zelenchukskaya Station MPS 338982
2010 07 15.00439 20 38 14.01 +01 34 29.3 20.5 C 114 – Engelhardt Observatory, Zelenchukskaya Station MPS 338982
2011 10 26.53955 03 08 17.936 -01 02 25.73 20.7 g F51 – Pan-STARRS 1, Haleakala MPS 396297
2011 10 26.56618 03 08 16.660 -01 02 41.04 20.3 r F51 – Pan-STARRS 1, Haleakala MPS 396297
2011 10 26.57824 03 08 16.084 -01 02 47.99 20.3 r F51 – Pan-STARRS 1, Haleakala MPS 396297
2011 10 28.37816 03 06 51.86 -01 19 49.8 21.1 r 568 – Maunakea MPS 1140956
2011 10 28.42856 03 06 49.35 -01 20 18.1 20.5 r 568 – Maunakea MPS 1140956
2011 10 28.43893 03 06 48.83 -01 20 23.9 20.3 r 568 – Maunakea MPS 1140956
2011 10 29.48980 03 05 58.22 -01 30 09.7 20.5 g 568 – Maunakea MPS 1140956
2011 10 30.48220 03 05 09.86 -01 39 15.1 20.8 g 568 – Maunakea MPS 1140956
2011 10 30.49043 03 05 09.44 -01 39 19.5 20.8 g 568 – Maunakea MPS 1140956
2011 10 30.49956 03 05 08.97 -01 39 24.5 20.7 g 568 – Maunakea MPS 1140956
2011 11 22.37995 02 45 58.617 -04 17 58.43 20.7 w F51 – Pan-STARRS 1, Haleakala MPS 402360
2011 11 22.39426 02 45 57.923 -04 18 02.15 20.7 w F51 – Pan-STARRS 1, Haleakala MPS 402360
2011 11 22.44553 02 45 55.480 -04 18 17.53 20.6 w F51 – Pan-STARRS 1, Haleakala MPS 402360
2012 01 11.22479 02 34 46.721 -02 58 30.17 20.7 z F51 – Pan-STARRS 1, Haleakala MPS 407651
2012 01 11.23672 02 34 46.985 -02 58 25.92 20.7 z F51 – Pan-STARRS 1, Haleakala MPS 407651
2013 03 05.28564 11 56 17.05 -00 50 47.8 19.4 V 703 – Catalina Sky Survey MPS 459175
2013 03 05.29469 11 56 16.62 -00 50 41.2 19.4 V 703 – Catalina Sky Survey MPS 459175
2013 03 05.30374 11 56 16.29 -00 50 33.3 19.2 V 703 – Catalina Sky Survey MPS 459175
2013 03 05.31274 11 56 15.93 -00 50 25.2 19.3 V 703 – Catalina Sky Survey MPS 459175
2013 03 06.42027 11 55 33.104 -00 35 52.40 19.1 w F51 – Pan-STARRS 1, Haleakala MPS 459175
2013 03 06.43485 11 55 32.498 -00 35 40.87 19.1 w F51 – Pan-STARRS 1, Haleakala MPS 459175
2013 03 06.44947 11 55 31.890 -00 35 29.30 19.2 w F51 – Pan-STARRS 1, Haleakala MPS 459175
2013 03 13.26151 11 50 50.93 +00 57 03.4 19.7 G G45 – Space Surveillance Telescope, Atom Site MPS 1609339
2013 03 13.33847 11 50 47.44 +00 58 07.0 19.5 G G45 – Space Surveillance Telescope, Atom Site MPS 1609339
